L'image de la webcam se met à jour toutes les 30s.
La jauge météo se met à jour toutes les 10s d'après les données envoyées par la station météo du club.
Les graphiques se mettent à jour toutes les 5min et ne s'affichent que si la station est en ligne
METAR de LFRD (Source NOAA)
LFRD 280000Z AUTO 32009KT 9999 BKN026 BKN033 13/09 Q1016 NOSIG

TAF de LFRD (Source NOAA)
TAF TAF LFRD 271700Z 2718/2818 32015G25KT 9999 BKN025 BECMG 2718/2720 33012KT TEMPO 2809/2818 5000 RADZ BKN015
Ayez la webcam en fond d'écran de votre téléphone ou de votre tablette Android avec l'appli du club.